Curtis, NE

7:39 PM CST on December 26, 2014 (GMT -0600)
McCook Municipal | Change Station
CLOSE
Current Station
Airport
Location: McCook,
Elevation: 2579 ft
Nearby Weather Stations
Active Advisory: Winter Weather Advisory

Elev 2579 ft 40.20 °N, 100.59 °W | Updated 12 minutes ago

Snow
Snow
23 °F
Feels Like 15 °F
N
7
Wind Variable Wind from North

Today
High -- | Low -- °F
--% Chance of Precip.
Yesterday
High -- | Low -- °F
Precip. -- in
8:04 AM 5:21 PM
Waxing Crescent, 31% visible
Pressure 30.08 in
Visibility 0.5 miles
Clouds
Windchill 15 °F
Dew Point 20 °F
Humidity 88%
Rainfall 0.00 in
Snow Depth Not available.
UV Not available.
Pollen .10 out of 12
Air Quality Not available.
Flu Activity Not available.
SPECI KMCK 270127Z AUTO 35006KT 1/2SM SN FZFG VV008 M05/M07 A3008 RMK AO2 SNB0054 P0001 T10501067

More Conditions Fewer Conditions

Pressure 30.08 in
Visibility 0.5 miles
Clouds
Windchill 15 °F
Dew Point 20 °F
Humidity 88%
Rainfall 0.00 in
Snow Depth Not available.
UV Not available.
Pollen .10 out of 12
Air Quality Not available.
Flu Activity Not available.
SPECI KMCK 270127Z AUTO 35006KT 1/2SM SN FZFG VV008 M05/M07 A3008 RMK AO2 SNB0054 P0001 T10501067

More Conditions Fewer Conditions

Nowcast | as of 4:39 PM CST on December 26, 2014

Light to moderate snow will continue through the evening hours. Total snowfall of 3 to 6 inches can be expected by the time the snow ends late this evening.

×

10-Day Weather Forecast

Almanac

Astronomy

Dec. 26, 2014 Rise Set
Actual Time
Civil Twilight
Nautical Twilight
Astronomical Twilight
Moon
Length of Visible Light
Length of Day
Tomorrow will be .
, % of the Moon is Illuminated

Today's Extremes

State Highs State Lows

Community

WunderPhotos

Upload Photos

1,780,804 photos uploaded!

WunderBlogs® & News

Nearby

Air Quality

  Air Quality AQ Index Pollutant
Not available.

Snow Depth

Station Depth Elevation

Earthquake Activity

City Distance Mag. Time & Date
Minimum magnitude displayed is 2.5.

Coastal Water Temperatures

Place Temperature

Nearby Weather Stations